Weather History for KHSP - November, 2012

Change the Weather History Date:

Saturday, November 10, 2012

  Actual Average Record
Temperature  
Mean Temperature 53 °F -  
Max Temperature 60 °F 46 °F 69 °F (2006)
Min Temperature 46 °F 32 °F 17 °F (1996)
Degree Days  
Heating Degree Days 12    
Growing Degree Days 3 (Base 50)    
Moisture  
Dew Point 24 °F    
Average Humidity 34    
Maximum Humidity 44    
Minimum Humidity 18    
Precipitation  
Precipitation 0.00 in - - ()
Sea Level Pressure  
Sea Level Pressure 30.36 in    
Wind  
Wind Speed 11 mph (WSW)    
Max Wind Speed 15 mph    
Max Gust Speed 17 mph    
Visibility 10 miles    
Events      
Averages and records for this station are not official NWS values.
T = Trace of Precipitation, MM = Missing Value Source: NWS Daily Summary

Daily Weather History Graph

Daily Weather History Graph

Search for Another Location

Airport or City:

Trip Planner

Search our weather history database for the weather conditions in past years. The results will help you decide how hot, cold, wet, or windy it might be!

Date:

Astronomy

Nov. 10, 2012 Rise Set
Actual Time 6:55 AM EST 5:11 PM EST
Civil Twilight 6:27 AM EST 5:38 PM EST
Nautical Twilight 5:55 AM EST 6:10 PM EST
Astronomical Twilight 5:24 AM EST 6:41 PM EST
Moon 3:01 AM EST (11/10) 2:54 PM EST (11/10)
Length of Visible Light 11h 11m
Length of Day
10h 16m
Waning Crescent, 14% of the Moon is Illuminated
Nov 10
Waning Crescent
Nov 13
New
Nov 20
First Quarter
Nov 28
Full
Dec 6
Last Quarter

Hourly Weather History & Observations

Time (EST) Temp. Windchill Dew Point Humidity Pressure Visibility Wind Dir Wind Speed Gust Speed Precip Events Conditions
12:18 AM 46.4 °F 40.1 °F 21.2 °F 37% 30.27 in 10.0 mi West 15.0 mph - N/A   Clear
12:38 AM 46.4 °F 40.4 °F 21.2 °F 37% 30.27 in 10.0 mi West 13.8 mph - N/A   Unknown
12:59 AM 46.4 °F 40.1 °F 24.8 °F 43% 30.27 in 10.0 mi West 15.0 mph - N/A   Clear
1:19 AM 46.4 °F 40.4 °F 24.8 °F 43% 30.27 in 10.0 mi West 13.8 mph - N/A   Clear
1:39 AM 46.4 °F 40.7 °F 24.8 °F 43% 30.28 in 10.0 mi West 12.7 mph - N/A   Clear
1:59 AM 46.4 °F 41.1 °F 24.8 °F 43% 30.28 in 10.0 mi West 11.5 mph - N/A   Clear
2:20 AM 46.4 °F 41.1 °F 24.8 °F 43% 30.28 in 10.0 mi West 11.5 mph - N/A   Clear
2:40 AM 46.4 °F 40.7 °F 24.8 °F 43% 30.29 in 10.0 mi West 12.7 mph - N/A   Clear
3:00 AM 46.4 °F 41.1 °F 23.0 °F 40% 30.29 in 10.0 mi West 11.5 mph - N/A   Clear
3:20 AM 46.4 °F 41.1 °F 23.0 °F 40% 30.29 in 10.0 mi West 11.5 mph - N/A   Clear
3:40 AM 46.4 °F 40.7 °F 24.8 °F 43% 30.29 in 10.0 mi West 12.7 mph - N/A   Clear
4:00 AM 46.4 °F 41.1 °F 23.0 °F 40% 30.29 in 10.0 mi West 11.5 mph - N/A   Clear
4:20 AM 46.4 °F 41.1 °F 23.0 °F 40% 30.30 in 10.0 mi West 11.5 mph - N/A   Clear
4:41 AM 46.4 °F 40.7 °F 23.0 °F 40% 30.30 in 10.0 mi West 12.7 mph - N/A   Clear
5:01 AM 46.4 °F 40.4 °F 21.2 °F 37% 30.30 in 10.0 mi West 13.8 mph - N/A   Clear
5:35 AM 46.4 °F 40.7 °F 24.8 °F 43% 30.32 in 10.0 mi West 12.7 mph - N/A   Clear
5:55 AM 46.4 °F 41.1 °F 21.2 °F 37% 30.32 in 10.0 mi West 11.5 mph - N/A   Clear
6:15 AM 48.2 °F - 15.8 °F 27% 30.32 in 10.0 mi West 10.4 mph - N/A   Clear
6:35 AM 46.4 °F 40.7 °F 15.8 °F 29% 30.33 in 10.0 mi West 12.7 mph - N/A   Clear
7:15 AM 48.2 °F - 14.0 °F 25% 30.34 in 10.0 mi WNW 12.7 mph - N/A   Clear
7:35 AM 48.2 °F - 12.2 °F 24% 30.35 in 10.0 mi WNW 9.2 mph 16.1 mph N/A   Clear
7:55 AM 50.0 °F - 10.4 °F 20% 30.36 in 10.0 mi WNW 9.2 mph - N/A   Clear
8:15 AM 51.8 °F - 12.2 °F 21% 30.36 in 10.0 mi WNW 5.8 mph - N/A   Clear
8:35 AM 51.8 °F - 10.4 °F 19% 30.37 in 10.0 mi West 8.1 mph - N/A   Clear
8:55 AM 51.8 °F - 12.2 °F 21% 30.37 in 10.0 mi West 6.9 mph - N/A   Clear
9:15 AM 53.6 °F - 12.2 °F 19% 30.38 in 10.0 mi West 6.9 mph - N/A   Clear
9:55 AM 55.4 °F - 12.2 °F 18% 30.39 in 10.0 mi West 9.2 mph - N/A   Clear
9:57 AM 55.4 °F - 12.2 °F 18% 30.39 in 10.0 mi West 6.9 mph - N/A   Clear
10:15 AM 55.4 °F - 15.8 °F 21% 30.39 in 10.0 mi West 8.1 mph - N/A   Clear
10:35 AM 55.4 °F - 17.6 °F 23% 30.39 in 10.0 mi West 8.1 mph - N/A   Clear
10:55 AM 55.4 °F - 19.4 °F 25% 30.39 in 10.0 mi West 8.1 mph - N/A   Clear
11:15 AM 55.4 °F - 21.2 °F 26% 30.38 in 10.0 mi West 9.2 mph - N/A   Clear
11:35 AM 57.2 °F - 24.8 °F 29% 30.37 in 10.0 mi West 8.1 mph - N/A   Clear
11:55 AM 57.2 °F - 26.6 °F 31% 30.37 in 10.0 mi West 8.1 mph - N/A   Clear
12:15 PM 57.2 °F - 28.4 °F 33% 30.36 in 10.0 mi West 6.9 mph - N/A   Clear
12:35 PM 57.2 °F - 28.4 °F 33% 30.36 in 10.0 mi West 4.6 mph - N/A   Clear
12:55 PM 59.0 °F - 30.2 °F 34% 30.35 in 10.0 mi West 8.1 mph - N/A   Clear
1:15 PM 59.0 °F - 30.2 °F 34% 30.35 in 10.0 mi West 6.9 mph - N/A   Clear
1:57 PM 59.0 °F - 33.8 °F 39% 30.35 in 10.0 mi West 5.8 mph - N/A   Clear
2:15 PM 60.8 °F - 33.8 °F 36% 30.34 in 10.0 mi WSW 9.2 mph - N/A   Clear
2:35 PM 60.8 °F - 33.8 °F 36% 30.34 in 10.0 mi West 11.5 mph - N/A   Clear
3:15 PM 60.8 °F - 33.8 °F 36% 30.35 in 10.0 mi West 11.5 mph - N/A   Clear
3:57 PM 60.8 °F - 33.8 °F 36% 30.36 in 10.0 mi West 9.2 mph - N/A   Clear
4:37 PM 57.2 °F - 33.8 °F 41% 30.37 in 10.0 mi WSW 6.9 mph - N/A   Clear
4:57 PM 55.4 °F - 33.8 °F 44% 30.37 in 10.0 mi WSW 6.9 mph - N/A   Clear
5:17 PM 55.4 °F - 33.8 °F 44% 30.38 in 10.0 mi SW 3.5 mph - N/A   Clear
5:35 PM 53.6 °F - 30.2 °F 41% 30.38 in 10.0 mi South 4.6 mph - N/A   Clear
5:37 PM 53.6 °F - 30.2 °F 41% 30.38 in 10.0 mi South 5.8 mph - N/A   Clear
6:15 PM 55.4 °F - 30.2 °F 38% 30.39 in 10.0 mi South 6.9 mph - N/A   Clear
6:37 PM 55.4 °F - 30.2 °F 38% 30.39 in 10.0 mi SSW 5.8 mph - N/A   Clear
6:55 PM 55.4 °F - 30.2 °F 38% 30.40 in 10.0 mi South 8.1 mph - N/A   Clear
7:15 PM 55.4 °F - 28.4 °F 36% 30.40 in 10.0 mi South 11.5 mph - N/A   Clear
7:55 PM 55.4 °F - 26.6 °F 33% 30.40 in 10.0 mi South 10.4 mph - N/A   Clear
8:15 PM 55.4 °F - 26.6 °F 33% 30.40 in 10.0 mi South 11.5 mph - N/A   Clear
8:35 PM 55.4 °F - 26.6 °F 33% 30.41 in 10.0 mi South 12.7 mph - N/A   Clear
8:55 PM 55.4 °F - 26.6 °F 33% 30.41 in 10.0 mi South 12.7 mph 17.3 mph N/A   Clear
9:15 PM 55.4 °F - 26.6 °F 33% 30.42 in 10.0 mi South 11.5 mph 17.3 mph N/A   Clear
9:35 PM 55.4 °F - 26.6 °F 33% 30.42 in 10.0 mi South 13.8 mph - N/A   Clear
9:55 PM 55.4 °F - 26.6 °F 33% 30.42 in 10.0 mi South 12.7 mph 17.3 mph N/A   Clear
10:15 PM 55.4 °F - 26.6 °F 33% 30.42 in 10.0 mi South 13.8 mph - N/A   Clear
10:35 PM 55.4 °F - 26.6 °F 33% 30.42 in 10.0 mi South 8.1 mph 17.3 mph N/A   Clear
10:55 PM 55.4 °F - 26.6 °F 33% 30.42 in 10.0 mi South 9.2 mph 16.1 mph N/A   Clear
11:15 PM 55.4 °F - 24.8 °F 31% 30.42 in 10.0 mi South 10.4 mph - N/A   Clear
11:35 PM 55.4 °F - 24.8 °F 31% 30.42 in 10.0 mi South 10.4 mph - N/A   Clear
11:55 PM 55.4 °F - 26.6 °F 33% 30.42 in 10.0 mi South 8.1 mph - N/A   Clear